User: anonymous   Login
Location: Bouchavesnes-Bergen
(49.9859°N, 2.9203°E)
Time: 23:17:26
(UTC+00:00)
Language:

BREEZE M DEB (TANK) - Orbit

View from above orbital plane
View from above orbital plane
View from above satellite
View from above satellite

Ground track
Ground track

The orbit data is extracted from the following two-line orbital elements,

1 28926U 05052C   21125.29670960  .00002221  00000-0  24995-3 0  9998
2 28926  49.5486  85.0283 5167549 116.4502 304.8792  5.37624343293179
Epoch (UTC): 05 May 2021 07:07:15
Eccentricity: 0.5167549
inclination: 49.5486°
perigee height: 273 km
apogee height: 14498 km
right ascension of ascending node: 85.0283°
argument of perigee: 116.4502°
revolutions per day: 5.37624343
mean anomaly at epoch: 304.8792°
orbit number at epoch: 29317

The dashed part of the orbit path shows where the satellite is in the earth's shadow,  

DLR